(154688) = 2004 HV1

Discovered at Desert Eagle on 2004-04-20 by W. K. Y. Yeung.

Orbit

Orbit type: Main Belt

Note: WebGL enabled browser required.

epoch2024-03-31.0
epoch JD2460400.5
perihelion date2021-05-21.88400
perihelion JD2459356.38400
argument of perihelion (°)34.01989
ascending node (°)208.87507
inclination (°)7.30096
eccentricity0.1122780
perihelion distance (AU)1.9974686
Tisserand w.r.t. Jupiter3.6
ΔV w.r.t. Earth (km/sec)9.0
semimajor axis (AU)2.2501059
mean anomaly (°)304.89349
mean daily motion (°/day)0.29201110
aphelion distance (AU)2.503
period (years)3.38
P-vector [x]-0.45781365
P-vector [y]-0.84135493
P-vector [z]-0.28727782
Q-vector [x]0.88692766
Q-vector [y]-0.45452517
Q-vector [z]-0.08225693
absolute magnitude16.9
phase slope0.15
uncertainty0
referenceMPEC 2024-F14
observations used757
oppositions16
arc length (days)8269
first opposition used2001
last opposition used2024
residual rms (arc-secs)0.64
perturbers coarse indicatorM-v
perturbers precise indicator003Ek
first observation date used2001-07-27.0
last observation date used2024-03-17.0
computer nameMPCLINUX
JD of orbit computation2456937.372057
perihelion JD uncertainty (days)6.7880E-05
argument of perihelion uncertainty (°)3.0183E-05
ascending node uncertainty (°)2.3571E-05
inclination uncertainty (°)6.1101E-06
eccentricity uncertainty 5.2838E-08
perihelion distance uncertainty (AU)1.2265E-07
Minimum Orbit Intersection Distances (in AU)
for orbit epoch: 2460400.5, reference: E2024-G51
Mercury1.5372
Venus1.2742
Earth0.98984
Mars0.43116
Jupiter2.49468
Saturn6.56765
Uranus16.2378
Neptune27.3423

Observations

805 total observations over interval: 2001 07 27.49592 – 2024 03 17.465600
These data are available for download (format description).

Date (UT) J2000 RA J2000 Dec Magn Location Ref
2001 07 27.49592 19 42 31.63 -07 09 12.8 19.6   608 – Haleakala-AMOS MPS 178466
2001 07 27.50644 19 42 31.01 -07 09 15.4 20.0   608 – Haleakala-AMOS MPS 178466
2001 07 27.51745 19 42 30.38 -07 09 18.1 20.0   608 – Haleakala-AMOS MPS 178466
2002 12 03.28372 04 46 36.20 +14 09 18.6 20.2   644 – Palomar Mountain/NEAT MPS 178466
2002 12 03.35513 04 46 31.34 +14 09 00.4 20.2   644 – Palomar Mountain/NEAT MPS 178466
2002 12 03.42136 04 46 26.88 +14 08 42.9 20.3   644 – Palomar Mountain/NEAT MPS 178466
2004 04 12.32350 14 42 47.64 -14 46 00.5 19.1   644 – Palomar Mountain/NEAT MPS 105268
2004 04 12.34439 14 42 46.76 -14 45 49.7 19.0   644 – Palomar Mountain/NEAT MPS 105268
2004 04 12.38406 14 42 45.13 -14 45 29.3 19.5   644 – Palomar Mountain/NEAT MPS 105268
2004 04 15.38260 14 40 43.18 -14 18 46.2 19.0 R 699 – Lowell Observatory-LONEOS MPS 105268
2004 04 15.39870 14 40 42.51 -14 18 37.3   699 – Lowell Observatory-LONEOS MPS 105268
2004 04 15.42965 14 40 41.09 -14 18 20.0   699 – Lowell Observatory-LONEOS MPS 105268
2004 04 15.44573 14 40 40.34 -14 18 10.4   699 – Lowell Observatory-LONEOS MPS 105268
2004 04 20.35059 14 36 57.55 -13 31 53.1 20.3 R 333 – Desert Eagle Observatory MPS 105268
2004 04 20.35840 14 36 57.17 -13 31 47.8 20.2 R 333 – Desert Eagle Observatory MPS 105268
2004 04 20.36613 14 36 56.77 -13 31 44.1 20.1 R 333 – Desert Eagle Observatory MPS 105268
2004 04 21.36470 14 36 08.53 -13 22 02.6 20.7 R 333 – Desert Eagle Observatory MPS 105268
2004 04 21.37241 14 36 08.12 -13 21 57.6 21.1 R 333 – Desert Eagle Observatory MPS 105268
2004 04 21.38277 14 36 07.49 -13 21 51.9 19.9   704 – Lincoln Laboratory ETS, New Mexico MPS 105268
2004 04 21.39557 14 36 06.91 -13 21 44.3 20.3 R 333 – Desert Eagle Observatory MPS 105268
2004 04 21.40303 14 36 06.53 -13 21 39.4 21.6 R 333 – Desert Eagle Observatory MPS 105268
2004 04 21.40502 14 36 06.52 -13 21 38.8 19.1   704 – Lincoln Laboratory ETS, New Mexico MPS 105268
2004 04 21.41607 14 36 05.79 -13 21 31.6 19.4   704 – Lincoln Laboratory ETS, New Mexico MPS 105268
2004 05 12.18423 14 18 48.89 -09 59 38.0 19.1 R 699 – Lowell Observatory-LONEOS MPS 108141
2004 05 12.20345 14 18 48.02 -09 59 28.0   699 – Lowell Observatory-LONEOS MPS 108141
2004 05 12.22264 14 18 47.11 -09 59 17.7   699 – Lowell Observatory-LONEOS MPS 108141
2004 05 12.24187 14 18 46.18 -09 59 06.6   699 – Lowell Observatory-LONEOS MPS 108141
2004 05 14.21688 14 17 19.99 -09 41 58.8 19.0 V 691 – Steward Observatory, Kitt Peak-Spacewatch MPS 106810
2004 05 14.24611 14 17 18.66 -09 41 44.0 19.1 V 691 – Steward Observatory, Kitt Peak-Spacewatch MPS 106810
2004 05 14.28068 14 17 17.08 -09 41 26.4 19.7 V 691 – Steward Observatory, Kitt Peak-Spacewatch MPS 106810
2004 05 15.25113 14 16 36.52 -09 33 18.4 19.9   704 – Lincoln Laboratory ETS, New Mexico MPS 107418
2004 05 15.26040 14 16 36.13 -09 33 13.3 19.8   704 – Lincoln Laboratory ETS, New Mexico MPS 107418
2004 05 15.26989 14 16 35.68 -09 33 06.7 19.2   704 – Lincoln Laboratory ETS, New Mexico MPS 107418
2004 05 15.27904 14 16 35.30 -09 33 02.8 19.1   704 – Lincoln Laboratory ETS, New Mexico MPS 107418
2004 05 15.28910 14 16 34.85 -09 32 58.3 19.6   704 – Lincoln Laboratory ETS, New Mexico MPS 107418
2004 05 17.25920 14 15 16.29 -09 16 59.1 19.4   704 – Lincoln Laboratory ETS, New Mexico MPS 107418
2004 05 17.26869 14 15 15.87 -09 16 53.0 19.6   704 – Lincoln Laboratory ETS, New Mexico MPS 107418
2004 05 17.27818 14 15 15.47 -09 16 49.3 19.6   704 – Lincoln Laboratory ETS, New Mexico MPS 107418
2004 05 21.28336 14 12 53.09 -08 46 49.0 18.8   704 – Lincoln Laboratory ETS, New Mexico MPS 107418
2004 05 21.29255 14 12 52.76 -08 46 45.3 19.4   704 – Lincoln Laboratory ETS, New Mexico MPS 107418
2004 05 21.30177 14 12 52.48 -08 46 41.2 19.5   704 – Lincoln Laboratory ETS, New Mexico MPS 107418
2004 05 21.31097 14 12 52.14 -08 46 37.1 19.7   704 – Lincoln Laboratory ETS, New Mexico MPS 107418
2004 05 21.32019 14 12 51.81 -08 46 33.2 19.8   704 – Lincoln Laboratory ETS, New Mexico MPS 107418
2005 10 01.33580 02 08 43.87 +14 04 37.9 20.8 V G96 – Mt. Lemmon Survey MPS 202343
2005 10 01.34420 02 08 43.51 +14 04 34.5 20.7 V G96 – Mt. Lemmon Survey MPS 202343
2005 10 01.35251 02 08 43.11 +14 04 31.2 20.4 V G96 – Mt. Lemmon Survey MPS 202343
2005 10 01.36082 02 08 42.72 +14 04 27.8 20.2 V G96 – Mt. Lemmon Survey MPS 202343
2005 10 11.38671 02 00 24.91 +12 48 58.0 20.2 V 691 – Steward Observatory, Kitt Peak-Spacewatch MPS 155296
2005 10 11.40408 02 00 23.92 +12 48 49.4 20.1 V 691 – Steward Observatory, Kitt Peak-Spacewatch MPS 155296
2005 10 11.42145 02 00 22.95 +12 48 40.8 20.0 V 691 – Steward Observatory, Kitt Peak-Spacewatch MPS 155296
2005 10 23.31285 01 49 07.60 +11 07 32.5 19.8 V 703 – Catalina Sky Survey MPS 155296
2005 10 23.32265 01 49 06.92 +11 07 27.4 19.4 V 703 – Catalina Sky Survey MPS 155296
2005 10 23.33257 01 49 06.31 +11 07 22.4 19.4 V 703 – Catalina Sky Survey MPS 155296
2005 10 23.34241 01 49 05.73 +11 07 16.9 19.1 V 703 – Catalina Sky Survey MPS 155296
2005 10 25.30304 01 47 13.27 +10 50 15.9 19.4 V G96 – Mt. Lemmon Survey MPS 155296
2005 10 25.30902 01 47 12.91 +10 50 12.7 20.2 V G96 – Mt. Lemmon Survey MPS 155296
2005 10 25.31499 01 47 12.58 +10 50 09.5 19.6 V G96 – Mt. Lemmon Survey MPS 155296
2005 10 30.30498 01 42 32.76 +10 07 25.3 19.3 V G96 – Mt. Lemmon Survey MPS 155296
2005 10 30.31298 01 42 32.29 +10 07 20.8 19.4 V G96 – Mt. Lemmon Survey MPS 155296
2005 10 30.32095 01 42 31.82 +10 07 17.1 19.4 V G96 – Mt. Lemmon Survey MPS 155296
2005 10 30.32892 01 42 31.39 +10 07 13.0 19.4 V G96 – Mt. Lemmon Survey MPS 155296
2005 11 29.18452 01 24 12.09 +06 57 22.6 20.4 V G96 – Mt. Lemmon Survey MPS 153675
2005 11 29.19119 01 24 12.02 +06 57 20.4 20.6 V G96 – Mt. Lemmon Survey MPS 153675
2005 11 29.19779 01 24 11.88 +06 57 19.2 21.1 V G96 – Mt. Lemmon Survey MPS 153675
2005 11 29.20476 01 24 11.77 +06 57 18.3 20.6 V G96 – Mt. Lemmon Survey MPS 153675
2005 12 04.17983 01 23 23.17 +06 41 57.5 20.5 V G96 – Mt. Lemmon Survey MPS 153675
2005 12 04.18749 01 23 23.10 +06 41 56.2 20.7 V G96 – Mt. Lemmon Survey MPS 153675
2005 12 04.19521 01 23 23.02 +06 41 55.0 21.0 V G96 – Mt. Lemmon Survey MPS 153675
2005 12 04.20293 01 23 22.99 +06 41 54.0 21.3 V G96 – Mt. Lemmon Survey MPS 153675
2007 01 27.28648 10 17 18.27 -01 11 30.1 20.6 V 703 – Catalina Sky Survey MPS 198118
2007 01 27.29675 10 17 17.80 -01 11 26.4 19.8 V 703 – Catalina Sky Survey MPS 198118
2007 01 27.30698 10 17 17.44 -01 11 28.6 20.1 V 703 – Catalina Sky Survey MPS 198118
2007 01 27.31726 10 17 17.01 -01 11 26.9 19.8 V 703 – Catalina Sky Survey MPS 198118
2007 02 10.34508 10 06 10.36 -00 20 16.6 19.7 V 703 – Catalina Sky Survey MPS 199470
2007 02 10.35205 10 06 10.04 -00 20 13.8 18.9 V 703 – Catalina Sky Survey MPS 199470
2007 02 10.35902 10 06 09.46 -00 20 10.6 19.1 V 703 – Catalina Sky Survey MPS 199470
2007 02 10.36598 10 06 09.18 -00 20 11.1 19.0 V 703 – Catalina Sky Survey MPS 199470
2007 02 17.29263 09 59 33.61 +00 22 04.4 19.0 V 703 – Catalina Sky Survey MPS 200362
2007 02 17.30054 09 59 33.07 +00 22 07.5 18.8 V 703 – Catalina Sky Survey MPS 200362
2007 02 17.30848 09 59 32.64 +00 22 12.0 19.4 V 703 – Catalina Sky Survey MPS 200362
2007 02 17.31643 09 59 32.17 +00 22 16.1 19.2 V 703 – Catalina Sky Survey MPS 200362
2007 02 25.28866 09 51 47.05 +01 21 20.4 19.3   704 – Lincoln Laboratory ETS, New Mexico MPS 201499
2007 02 25.30020 09 51 46.47 +01 21 25.7 18.9   704 – Lincoln Laboratory ETS, New Mexico MPS 201499
2007 02 25.31176 09 51 45.70 +01 21 31.0 19.1   704 – Lincoln Laboratory ETS, New Mexico MPS 201499
2008 08 01.29847 22 57 07.20 +04 31 31.7 19.8   704 – Lincoln Laboratory ETS, New Mexico MPS 253947
2008 08 01.30964 22 57 06.90 +04 31 30.4 19.8   704 – Lincoln Laboratory ETS, New Mexico MPS 253947
2008 08 01.32072 22 57 06.52 +04 31 29.1 19.7   704 – Lincoln Laboratory ETS, New Mexico MPS 253947
2008 08 01.33190 22 57 06.24 +04 31 28.0 20.3   704 – Lincoln Laboratory ETS, New Mexico MPS 253947
2008 08 01.34295 22 57 05.90 +04 31 27.1 20.1   704 – Lincoln Laboratory ETS, New Mexico MPS 253947
2008 08 24.93130 22 40 07.07 +02 38 41.8 19.0 V J75 – OAM Observatory, La Sagra MPS 255108
